Current Version              Previous Version:    01  02  03  04  05  06  07  08  09  10  11  12  13  14  15  16  17  18  19  20  21  22  23  24  25  26  27  28  29  30  
   31  32  33  34  35  36  37  38  39  40  41  42  43  44  45  46  47  48  49  50  51  52  53  54  55  56  57  58  59  60  

[Printable]
037
ASUS44 KFWD 210402
RWRTX
NORTH TEXAS HOURLY WEATHER ROUNDUP
NATIONAL WEATHER SERVICE FORT WORTH TX
ISSUED BY NWS SHREVEPORT LA
1000 PM CST THU NOV 20 2014

NOTE: "FAIR" INDICATES FEW OR NO CLOUDS BELOW 12,000 FEET WITH NO
SIGNIFICANT WEATHER AND/OR OBSTRUCTIONS TO VISIBILITY.

TXZ118-119-210500-
DALLAS/FORT WORTH METROPLEX

CITY           SKY/WX    TMP DP  RH WIND       PRES   REMARKS
DFW AIRPORT    PTCLDY    61  56  83 S14       30.03S
DALLAS LOVE    MOCLDY    62  57  83 S16       30.04S
FTW MEACHAM    CLEAR     62  56  80 SE13      30.02S
DAL-EXECUTIVE  CLOUDY    64  57  78 S10       30.04S
FTW-ALLIANCE   CLEAR     60  56  86 S9        30.02S
FTW-NAS-JRB    PTCLDY    67  55  65 S12       30.07R
ARLINGTON      MOCLDY    63  57  81 SE12      30.04R
GRAND PRAIRIE  CLEAR     62  58  89 S10       30.05S
ADDISON        PTCLDY    62  59  90 S14       30.06S
$$

TXZ091>094-102>105-117-120-121-131>134-210500-
NORTH CENTRAL TEXAS

CITY           SKY/WX    TMP DP  RH WIND       PRES   REMARKS
SHRMAN/DENISON CLOUDY    58  53  84 E8        30.06S
DECATUR        CLEAR     57  53  88 SE8       30.03R
DENTON         CLEAR     60  55  83 SE9       30.03R
MCKINNEY       CLOUDY    61  55  81 SE9       30.05S
TERRELL        MOCLDY    63  58  83 S15       30.08R
$$

TXZ083>090-098>101-113>116-127>130-139>142-154-155-210500-
WESTERN NORTH TEXAS

CITY           SKY/WX    TMP DP  RH WIND       PRES   REMARKS
WICHITA FALLS  CLEAR     49  41  74 E8        29.98R
ABILENE        CLEAR     53  40  61 S7        30.00R
ABILENE-DYESS  CLEAR     53  40  63 S5        29.98R
MINERAL WELLS  CLEAR     58  54  86 SE9       30.00R
STEPHENVILLE   CLEAR     58  54  85 S6        30.05R
$$

TXZ143>147-156>162-174-175-210500-
CENTRAL TEXAS

CITY           SKY/WX    TMP DP  RH WIND       PRES   REMARKS
WACO           CLOUDY    62  58  86 S15       30.06S
WACO-MCGREGOR  CLOUDY    63  54  72 S17       30.07S
CORSICANA      CLOUDY    62  58  86 S8        30.09S
TEMPLE         CLOUDY    61  55  82 SE13      30.06S
KILLEEN-GRAY   CLOUDY    61  60  96 SE10      30.06S
KILLEEN-SKYLRK CLOUDY    63  55  77 SE13      30.05S
FORT HOOD      CLOUDY    64  60  87 SE9       30.06R
$$

TXZ095>097-106>112-122>126-135>138-148>153-164>167-210500-
EAST TEXAS

CITY           SKY/WX    TMP DP  RH WIND       PRES   REMARKS
PARIS          MOCLDY    52  48  87 E9        30.11S
MOUNT PLEASANT CLOUDY    59  55  84 SE5       30.13R
TYLER          CLOUDY    59  56  89 S6        30.11S
LONGVIEW       LGT RAIN  60  55  83 S12       30.13R
MARSHALL       MOCLDY    64  57  79 S5        30.15R
PALESTINE      MOCLDY    58  56  91 SE3       30.11S
JACKSONVILLE   MOCLDY    59  53  80 S7        30.13S
NACOGDOCHES    CLOUDY    61  52  72 S8        30.14S
LUFKIN         CLOUDY    63  54  72 SE8       30.13S
$$

SUPPLEMENTAL OBSERVATIONS (CENTRAL)

CITY           SKY/WX    TMP DP  RH WIND       PRES   REMARKS
$$

SUPPLEMENTAL OBSERVATIONS (WEST)

CITY           SKY/WX    TMP DP  RH WIND       PRES   REMARKS
$$

SUPPLEMENTAL OBSERVATIONS (EAST)

CITY           SKY/WX    TMP DP  RH WIND       PRES   REMARKS
$$

SUPPLEMENTAL OBSERVATIONS ARE A COLLECTION OF AUTOMATED INSTRUMENTS
THAT ARE MAINTAINED BY A VARIETY OF FEDERAL AND STATE AGENCIES.
CERTAIN ELEMENTS...SUCH AS HUMIDITY VALUES AND SUSTAINED WIND
SPEEDS...MAY BE ESTIMATED.